Location: Unspecified
(0.0000°N, 0.0000°E)
Time: 16:16:44
(UTC+00:00)

Hubble Space Telescope - Visible Passes

Search period start: 25 January 2015 00:00
Search period end: 04 February 2015 00:00
Orbit: 544 x 548 km, 28.5° (Epoch: 24 January)

Date Brightness Start Highest point End Pass type
(mag) Time Alt. Az. Time Alt. Az. Time Alt. Az.
25 Jan 3.9 03:42:32 12° E 03:42:32 12° E 03:42:51 10° E visible
25 Jan 1.2 05:18:03 19° W 05:20:44 49° SSW 05:24:47 10° SE visible
26 Jan 4.1 03:35:14 10° E 03:35:14 10° E 03:35:19 10° E visible
26 Jan 1.8 05:10:45 21° WSW 05:12:48 33° SSW 05:16:35 10° SE visible
27 Jan 2.4 05:03:25 19° WSW 05:04:54 23° SSW 05:08:14 10° SSE visible
28 Jan 2.8 04:56:03 15° SW 04:57:02 16° SSW 04:59:39 10° SSE visible
29 Jan 3.2 04:48:38 11° SSW 04:49:10 12° SSW 04:50:36 10° S visible
